Stations météo

Publicité
Longyearbyen/Svalbard Intl, Norvège (1008): Température de l'air & dewpoint: 12.08.2019 14:00:00 - 18.08.2019 14:00:00 (CEST)Longyearbyen/Svalbard Intl, Norvège (1008): Vitesse du vent & gusts: 12.08.2019 14:00:00 - 18.08.2019 14:00:00 (CEST)Longyearbyen/Svalbard Intl, Norvège (1008): Direction du vent: 12.08.2019 14:00:00 - 18.08.2019 14:00:00 (CEST)Longyearbyen/Svalbard Intl, Norvège (1008): reduced air pressure: 12.08.2019 14:00:00 - 18.08.2019 14:00:00 (CEST)Longyearbyen/Svalbard Intl, Norvège (1008): visibility: 12.08.2019 14:00:00 - 18.08.2019 14:00:00 (CEST)Longyearbyen/Svalbard Intl, Norvège (1008): Quantités de précipitations: 12.08.2019 14:00:00 - 18.08.2019 14:00:00 (CEST)
Date & Time tt [°C] td [°C] ff [km/h] ff [knt] fx [km/h] fx [knt] dd ppp [hPa] vv [km] rr [mm]
18.08.2019 14:00:00 - - 15 8 - - - - - -
18.08.2019 13:00:00 5,8 1,8 13 7 20 11 WSW 1008,4 10 -
18.08.2019 12:00:00 4,7 1,8 15 8 19 11 WSW 1008,2 10 -
18.08.2019 11:00:00 5,1 0,0 15 8 20 11 WSW 1008,1 10 -
18.08.2019 10:00:00 4,8 0,2 13 7 22 12 WSW 1007,8 10 -
18.08.2019 09:00:00 4,3 0,2 15 8 23 13 SW 1007,8 10 -
18.08.2019 08:00:00 4,1 -0,2 18 10 - - SW 1007,5 55 0,0
18.08.2019 07:00:00 3,9 -0,3 15 8 27 15 SW 1007,3 - -
18.08.2019 06:00:00 3,4 0,5 24 13 29 16 WSW 1007,1 7 -
18.08.2019 05:00:00 3,4 0,2 16 9 34 18 SW 1006,9 55 -
18.08.2019 04:00:00 3,2 0,4 19 11 28 15 SW 1006,9 - -
18.08.2019 03:00:00 3,1 0,7 16 9 29 16 SW 1006,8 10 -
18.08.2019 02:00:00 3,4 0,4 16 9 - - SW 1006,6 10 -
18.08.2019 01:00:00 3,5 0,5 16 9 34 18 SW 1006,4 10 -
18.08.2019 00:00:00 3,3 0,8 16 9 37 20 SW 1006,0 10 -
17.08.2019 23:00:00 3,4 1,0 26 14 38 21 WSW 1005,7 10 -
17.08.2019 22:00:00 3,8 0,9 24 13 39 21 SW 1005,3 10 -
17.08.2019 21:00:00 3,8 0,6 22 12 42 23 SW 1005,1 10 -
17.08.2019 20:00:00 3,8 1,3 26 14 - - SW 1005,0 60 -
17.08.2019 19:00:00 4,2 1,3 28 15 42 23 WSW 1004,8 10 -
17.08.2019 18:00:00 4,5 0,7 26 14 42 23 WSW 1004,4 10 -
17.08.2019 17:00:00 4,4 0,3 26 14 38 20 WSW 1004,3 10 -
17.08.2019 16:00:00 4,6 0,4 24 13 44 24 WSW 1004,2 10 -
17.08.2019 15:00:00 4,6 0,2 26 14 39 21 WSW 1004,0 10 -
17.08.2019 14:00:00 4,7 0,8 24 13 - - WSW 1003,7 10 -
17.08.2019 13:00:00 4,7 0,4 28 15 37 20 WSW 1003,4 10 -
17.08.2019 12:00:00 4,7 0,3 26 14 40 21 WSW 1002,9 10 -
17.08.2019 11:00:00 4,9 0,5 26 14 33 18 WSW 1002,5 10 -
17.08.2019 10:00:00 4,1 0,3 26 14 34 19 WSW 1002,1 10 -
17.08.2019 09:00:00 4,1 -0,1 24 13 31 17 WSW 1001,7 10 -
17.08.2019 08:00:00 3,8 -0,2 24 13 - - WSW 1001,6 10 0,0
17.08.2019 07:00:00 3,4 -0,6 24 13 35 19 SW 1001,3 10 -
17.08.2019 06:00:00 3,3 0,1 27 15 39 21 WSW 1001,3 - -
17.08.2019 05:00:00 3,0 0,0 30 16 42 23 WSW 1001,1 55 -
17.08.2019 04:00:00 3,1 0,1 32 17 41 22 SW 1000,7 - -
17.08.2019 03:00:00 3,3 0,7 29 16 45 24 WSW 1000,4 - -
17.08.2019 02:00:00 3,3 0,2 35 19 - - WSW 1000,0 10 -
17.08.2019 01:00:00 3,4 0,4 34 18 42 23 WSW 1000,0 10 -
17.08.2019 00:00:00 3,4 0,7 39 21 48 26 WSW 999,9 10 -
16.08.2019 23:00:00 3,6 0,1 35 19 47 26 WSW 999,5 10 -
16.08.2019 22:00:00 3,4 0,4 31 17 46 25 WSW 999,5 10 -
16.08.2019 21:00:00 3,2 0,0 28 15 47 26 WSW 999,5 10 -
16.08.2019 20:00:00 3,8 -0,1 21 11 - - SW 999,4 10 -
16.08.2019 19:00:00 3,9 0,0 21 11 41 22 SW 999,5 10 -
16.08.2019 18:00:00 4,1 0,5 34 18 49 26 WSW 999,3 10 -
16.08.2019 17:00:00 4,5 0,1 29 16 42 23 SW 999,2 10 -
16.08.2019 16:00:00 4,8 -0,4 21 11 34 18 SW 999,6 10 -
16.08.2019 15:00:00 4,5 -0,6 16 9 29 16 SW 999,9 10 -
16.08.2019 14:00:00 4,9 -1,2 9 5 - - SW 1000,1 10 -
16.08.2019 13:00:00 4,6 -0,8 11 6 14 8 SW 1000,0 10 -
16.08.2019 12:00:00 4,8 -0,6 5 3 11 6 S 1000,0 10 -
16.08.2019 11:00:00 4,0 -0,5 5 3 9 5 - 999,9 10 -
16.08.2019 10:00:00 3,3 -0,1 5 3 11 6 S 999,8 10 -
16.08.2019 09:00:00 2,3 0,3 0 0 12 7 N 999,8 10 -
16.08.2019 08:00:00 1,7 -0,1 15 8 - - WSW 999,6 10 0,0
16.08.2019 07:00:00 1,1 -0,1 0 0 3 2 N 999,6 10 -
16.08.2019 06:00:00 1,0 -0,3 0 0 5 3 N 999,4 10 -
16.08.2019 05:00:00 0,8 -0,3 5 3 8 5 SSE 999,3 8 -
16.08.2019 04:00:00 0,6 -0,4 5 3 8 5 ESE 999,2 10 -
16.08.2019 03:00:00 0,8 -0,3 5 3 8 5 - 999,2 10 -
16.08.2019 02:00:00 0,7 -0,1 5 3 - - E 999,0 10 -
16.08.2019 01:00:00 0,7 -0,3 8 4 12 7 SSE 998,8 10 -
16.08.2019 00:00:00 0,4 -0,5 9 5 13 7 ESE 998,5 10 -
15.08.2019 23:00:00 1,2 -0,2 5 3 17 9 - 998,2 10 -
15.08.2019 22:00:00 2,7 0,0 11 6 31 17 NNW 998,0 10 -
15.08.2019 21:00:00 2,0 -1,2 15 8 27 15 WSW 997,9 10 -
15.08.2019 20:00:00 2,8 -1,2 29 16 - - W 997,9 20 -
15.08.2019 19:00:00 1,9 -0,3 21 11 32 18 WSW 998,0 10 -
15.08.2019 18:00:00 2,3 0,4 18 10 37 20 W 997,8 10 -
15.08.2019 17:00:00 3,9 0,4 18 10 28 15 WSW 997,5 10 -
15.08.2019 16:00:00 3,7 0,7 16 9 27 15 WSW 997,6 10 -
15.08.2019 15:00:00 4,2 0,2 13 7 27 14 SW 997,6 10 -
15.08.2019 14:00:00 3,5 0,7 15 8 - - SW 997,7 10 -
15.08.2019 13:00:00 3,8 0,2 11 6 21 12 SW 997,9 10 -
15.08.2019 12:00:00 3,9 -0,7 13 7 20 11 SW 998,0 10 -
15.08.2019 11:00:00 3,8 -0,9 13 7 22 12 SW 998,2 10 -
15.08.2019 10:00:00 3,9 -1,0 11 6 16 9 SSW 998,1 10 -
15.08.2019 09:00:00 3,8 -0,1 0 0 9 5 N 998,2 10 -
15.08.2019 08:00:00 3,9 0,4 2 1 - - ESE 998,3 65 0,0
15.08.2019 07:00:00 3,4 0,7 8 4 11 6 ENE 998,4 10 -
15.08.2019 06:00:00 3,0 0,7 5 3 14 8 - 998,5 10 -
15.08.2019 05:00:00 2,8 0,9 10 5 18 10 S 998,7 55 -
15.08.2019 04:00:00 2,6 0,9 11 6 14 8 ESE 998,9 10 -
15.08.2019 03:00:00 2,5 0,7 11 6 16 8 SE 998,9 10 -
15.08.2019 02:00:00 2,5 0,7 0 0 - - N 999,1 10 -
15.08.2019 01:00:00 2,7 0,6 5 3 16 9 - 999,2 10 -
15.08.2019 00:00:00 2,9 0,8 13 7 21 11 SW 999,4 10 -
14.08.2019 23:00:00 2,8 0,9 15 8 24 13 SW 999,7 55 -
14.08.2019 22:00:00 3,3 0,4 18 10 25 14 WSW 999,9 10 -
14.08.2019 21:00:00 2,3 0,4 18 10 32 17 WSW 1000,3 10 -
14.08.2019 20:00:00 3,2 0,9 29 16 - - WSW 1000,6 25 -
14.08.2019 19:00:00 3,8 0,1 31 17 38 20 WSW 1001,0 10 -
14.08.2019 18:00:00 4,0 0,1 31 17 37 20 WSW 1001,5 10 -
14.08.2019 17:00:00 4,4 0,0 28 15 - - WSW 1001,7 10 -
14.08.2019 16:00:00 4,7 0,2 31 17 42 23 WSW 1002,0 10 -
14.08.2019 15:00:00 4,5 -0,2 31 17 40 21 W 1002,3 10 -
14.08.2019 14:00:00 4,6 -0,7 29 16 - - W 1002,5 10 -
14.08.2019 13:00:00 4,8 -1,3 26 14 35 19 W 1002,9 10 -
14.08.2019 12:00:00 5,0 -1,0 28 15 36 19 W 1002,9 10 -
14.08.2019 11:00:00 4,7 -0,9 28 15 34 18 W 1003,0 10 -
14.08.2019 10:00:00 4,4 -1,0 24 13 36 19 W 1003,3 10 -
14.08.2019 09:00:00 4,3 -0,1 31 17 40 22 W 1003,6 10 -
14.08.2019 08:00:00 4,3 0,6 30 16 - - W 1003,6 40 0,0
14.08.2019 07:00:00 4,5 1,4 42 23 55 30 W 1003,9 10 -
14.08.2019 06:00:00 4,8 1,1 42 23 56 30 WSW 1003,9 10 -
14.08.2019 05:00:00 5,3 1,5 39 21 56 30 WSW 1004,3 10 -
14.08.2019 04:00:00 5,6 1,7 47 26 61 33 WSW 1005,0 - -
14.08.2019 03:00:00 6,3 2,1 44 24 58 32 WSW 1005,2 10 -
14.08.2019 02:00:00 6,1 2,5 41 22 - - WSW 1006,0 10 -
14.08.2019 01:00:00 6,2 1,6 38 21 46 25 SW 1006,7 - -
14.08.2019 00:00:00 6,1 -0,2 29 16 37 20 W 1007,4 10 -
13.08.2019 23:00:00 6,3 -0,3 31 17 44 24 WNW 1007,9 10 -
13.08.2019 22:00:00 6,2 -1,0 28 15 35 19 W 1008,2 10 -
13.08.2019 21:00:00 6,9 -0,3 24 13 31 17 WNW 1008,3 10 -
13.08.2019 20:00:00 7,1 1,4 25 13 - - WNW 1008,5 65 -
13.08.2019 19:00:00 7,8 0,8 21 11 29 15 WNW 1008,7 10 -
13.08.2019 18:00:00 8,4 -0,8 24 13 30 16 WSW 1008,9 10 -
13.08.2019 17:00:00 8,7 -1,3 22 12 29 16 WSW 1009,0 10 -
13.08.2019 16:00:00 8,6 -1,2 22 12 29 15 W 1009,6 10 -
13.08.2019 15:00:00 7,0 -0,3 11 6 24 13 W 1010,2 10 -
13.08.2019 14:00:00 7,1 -0,3 15 8 - - W 1010,6 10 -
13.08.2019 13:00:00 6,5 0,2 11 6 19 10 WSW 1010,8 10 -
13.08.2019 12:00:00 6,0 -0,5 9 5 14 7 W 1011,1 10 -
13.08.2019 11:00:00 6,1 -0,2 13 7 22 12 WSW 1011,4 10 -
13.08.2019 10:00:00 5,8 -0,1 5 3 11 6 - 1011,5 10 -
13.08.2019 09:00:00 5,5 -0,6 4 2 10 5 - 1011,8 10 -
13.08.2019 08:00:00 5,0 -1,0 4 2 - - - 1012,0 10 0,0
13.08.2019 07:00:00 5,4 -0,7 4 2 9 5 - 1012,2 10 -
13.08.2019 06:00:00 5,6 -0,9 5 3 9 5 N 1012,5 - -
13.08.2019 05:00:00 5,1 -1,1 5 3 9 5 NNW 1012,9 75 -
13.08.2019 04:00:00 4,4 -0,9 4 2 8 4 - 1013,1 10 -
13.08.2019 03:00:00 3,7 -1,3 4 2 12 6 NE 1013,5 10 -
13.08.2019 02:00:00 3,5 -1,2 4 2 - - - 1013,6 10 -
13.08.2019 01:00:00 3,9 -1,1 5 3 14 8 - 1013,6 10 -
13.08.2019 00:00:00 3,7 -1,2 5 3 10 5 - 1013,9 10 -
12.08.2019 23:00:00 4,6 -0,8 2 1 7 4 WNW 1013,9 75 -
12.08.2019 22:00:00 4,9 -1,0 5 3 13 7 N 1014,0 10 -
12.08.2019 21:00:00 5,9 -0,8 8 4 13 7 N 1014,1 10 -
12.08.2019 20:00:00 5,9 -0,8 5 3 - - NW 1014,3 10 -
12.08.2019 19:00:00 6,0 -0,7 5 3 13 7 NW 1014,4 10 -
12.08.2019 18:00:00 6,0 -1,0 4 2 10 5 - 1014,5 10 -
12.08.2019 17:00:00 6,1 -0,8 8 4 18 10 NNW 1014,7 10 -
12.08.2019 16:00:00 6,9 -0,8 5 3 14 7 NW 1014,8 10 -
12.08.2019 15:00:00 6,5 -1,2 4 2 13 7 - 1015,1 10 -
12.08.2019 14:00:00 6,8 -1,4 5 3 - - - 1015,4 10 -

tt = Température de l'air
td = dewpoint
ff = Vitesse du vent
fx = gusts
dd = Direction du vent
ppp = reduced air pressure
vv = visibility
rr = Quantités de précipitations

stations d'obs. à proximité